Vorticity
3 4 4 5 4 5 4 4 4 4 4 4 4 4 4 4 4 4 4 5 4 5 5 6 7 7 9 9 10 8 8 9 7 7 5 6 8 8 9 9 10 10 10 11 14 13 7 10 10 9 6 5 17 6 3 24 7 -1 18 13 17 15 0 15 19 7 13 17 9 11 10 -3 3 11 11 14 7 11 13 6 8 5 7 13 7 4 6 7
3 3 3 4 4 5 4 5 4 4 5 4 5 4 5 5 5 4 4 4 4 5 5 6 6 6 8 9 9 9 9 8 8 8 4 6 9 7 8 9 10 10 11 11 14 13 10 8 6 7 -7 -4 16 -2 -6 17 9 -16 -3 32 32 9 -3 8 20 13 14 12 12 41 41 8 5 4 4 26 19 7 18 19 9 4 7 9 6 7 9 8
3 3 3 3 3 4 4 5 5 5 5 5 6 5 6 6 6 5 4 4 4 5 5 5 5 6 7 7 9 9 9 8 9 9 5 7 9 7 7 8 10 10 10 10 15 13 12 10 7 15 5 0 7 2 -2 1 15 -13 -13 51 34 7 24 11 9 20 19 4 2 37 43 17 11 4 -3 14 17 4 12 20 12 6 8 9 5 6 11 7
3 3 3 2 3 4 4 5 5 6 5 5 6 5 6 6 7 6 5 5 4 5 5 6 5 5 6 6 8 8 10 9 8 9 6 7 8 8 6 7 10 10 10 7 13 13 12 12 2 3 2 3 5 9 8 -11 8 1 -4 41 11 -3 25 3 3 18 18 11 8 15 14 12 9 8 10 9 9 11 15 12 8 7 7 13 11 6 12 7
3 3 3 3 3 3 4 5 5 6 6 6 5 5 5 5 7 7 6 5 4 5 5 6 5 5 6 6 7 7 11 9 8 9 6 7 7 8 7 7 10 8 11 8 12 15 11 11 7 9 11 14 6 0 8 -3 4 2 -6 16 -0 -6 12 8 8 9 13 8 7 12 7 11 6 6 16 12 5 7 15 11 8 7 4 11 12 10 13 6
3 4 4 4 4 3 4 4 4 5 5 6 5 5 6 4 6 6 7 6 5 5 5 6 5 6 5 6 7 7 10 8 9 9 6 9 5 9 8 6 9 8 11 9 11 14 9 11 4 3 8 11 4 -2 10 9 10 6 1 14 5 -2 7 10 3 3 16 6 4 13 4 4 5 7 12 11 6 1 6 8 11 9 6 13 13 14 14 7
3 4 5 4 4 4 3 4 4 5 5 6 6 5 5 4 5 5 7 7 6 5 5 6 5 6 6 5 7 7 9 7 8 10 7 9 5 8 9 6 9 7 10 9 9 12 9 10 1 -6 -0 6 7 8 14 12 9 1 1 15 5 3 13 10 4 4 8 4 4 4 0 3 8 13 12 10 7 5 5 1 10 11 9 17 11 12 13 9
3 4 5 4 4 4 3 4 4 4 5 6 7 5 5 5 5 5 6 6 6 6 5 6 5 6 6 5 6 7 9 7 8 10 7 9 7 7 7 8 7 6 11 8 8 14 10 10 11 6 1 4 7 8 14 9 8 -0 -1 12 1 4 14 4 6 11 7 7 6 4 3 2 6 12 12 12 8 11 10 -1 7 7 6 13 7 8 10 11
5 5 5 4 4 4 4 5 4 4 4 5 7 7 5 4 5 5 5 5 6 6 5 5 5 5 6 5 6 7 8 7 8 10 9 8 7 7 7 8 8 6 9 8 8 10 11 10 14 17 13 16 13 9 10 -4 2 12 8 12 1 2 13 6 8 11 8 3 1 8 6 4 14 18 12 9 4 10 12 3 6 6 5 9 7 10 8 11
6 6 6 6 6 5 5 5 5 5 4 4 5 7 8 5 5 5 5 5 5 6 5 5 6 5 5 6 5 7 7 7 7 8 9 8 8 8 6 7 8 8 6 7 10 7 9 10 10 15 11 12 8 5 13 4 12 22 11 6 0 5 18 12 3 2 7 4 0 2 5 11 20 21 12 7 8 12 11 4 5 9 10 10 8 9 9 10
7 7 6 6 6 6 6 6 5 5 4 5 5 6 8 7 5 5 5 5 4 6 5 5 6 5 5 6 5 6 7 7 7 7 9 9 8 7 6 8 7 8 7 6 10 8 7 9 10 10 4 12 10 0 10 12 13 16 10 10 8 8 11 11 9 8 8 9 8 3 6 12 9 12 5 4 16 13 9 8 8 11 10 11 12 8 9 10
7 7 7 7 7 7 6 6 5 5 4 5 5 5 7 9 7 5 5 5 4 5 5 6 6 5 5 5 5 6 7 7 7 6 7 9 9 7 7 7 7 9 8 6 10 9 7 7 8 8 8 14 7 1 11 10 6 8 7 11 14 1 -13 1 15 10 6 9 13 9 10 11 5 14 5 -5 10 9 6 10 9 12 9 10 13 9 9 11
7 7 7 7 7 6 6 6 5 4 4 5 5 5 6 9 9 7 5 4 4 5 5 5 6 6 5 5 5 6 6 7 8 6 6 9 8 8 7 7 8 8 7 6 7 8 10 8 6 6 8 9 5 6 13 7 4 8 5 6 15 10 -3 3 2 0 12 12 8 5 6 7 4 14 8 -6 7 12 5 9 12 9 7 10 10 10 12 9
6 6 6 6 6 6 5 5 5 4 4 5 5 5 6 8 9 8 6 4 4 6 5 5 6 6 5 5 4 6 6 6 10 7 6 8 8 9 7 7 8 8 8 7 6 7 9 8 8 7 5 9 5 2 7 5 4 8 -0 -8 -1 8 10 11 3 1 12 5 0 6 4 6 6 5 4 3 11 13 5 9 16 7 2 7 7 8 10 9
5 5 5 5 5 5 6 5 5 5 4 5 5 5 6 7 9 8 7 5 3 6 6 4 6 5 6 6 4 7 5 4 10 9 6 7 8 9 8 7 7 8 8 6 7 7 7 8 8 6 6 7 4 5 5 -7 -5 2 -1 2 10 8 0 8 19 12 6 1 -2 7 5 4 11 4 1 11 14 13 11 11 13 7 2 4 6 7 7 9
7 6 6 6 6 5 6 5 5 5 5 5 5 5 6 6 8 8 7 5 3 6 6 4 5 5 7 6 5 8 5 3 9 10 7 6 7 9 9 8 6 7 8 7 9 6 6 8 5 7 7 6 9 6 -10 -20 -5 -1 -8 9 18 6 -7 -4 11 6 3 9 -2 -1 6 5 9 5 3 12 11 9 12 9 8 6 0 3 7 5 5 9
7 7 7 6 6 6 6 6 6 6 6 6 5 6 6 6 8 7 7 6 4 4 5 4 4 6 6 5 6 8 5 4 8 10 9 6 7 8 8 9 6 8 8 6 8 7 8 7 5 8 6 8 12 4 -3 4 21 19 4 4 2 8 14 6 8 5 7 19 8 -1 7 9 5 -1 1 8 7 6 9 9 10 8 3 5 8 4 2 6
7 7 7 7 7 7 7 7 7 7 7 7 7 7 7 7 9 8 6 5 5 5 6 5 3 6 5 2 5 7 6 5 6 10 10 6 7 7 8 9 8 8 8 7 8 7 8 7 7 8 7 7 4 8 13 1 1 19 23 12 9 22 20 3 5 7 4 5 4 4 3 7 6 -3 4 13 8 6 10 13 10 9 9 5 6 8 5 4
5 6 6 7 6 6 7 7 7 7 8 7 8 8 8 7 8 9 7 6 7 4 3 5 3 4 3 2 4 5 7 8 7 8 8 8 7 6 8 9 8 7 7 8 6 6 7 6 7 7 10 7 0 10 11 -6 -3 10 9 6 8 11 2 -4 0 8 17 10 4 11 3 2 11 5 10 18 9 4 7 10 9 9 10 5 5 8 8 6
3 4 4 5 5 5 5 5 6 7 7 7 8 8 8 7 7 11 10 5 5 2 2 6 5 3 1 3 4 3 7 10 9 8 7 9 7 6 8 7 8 8 6 8 6 7 8 6 8 6 10 7 0 3 -3 3 22 9 -9 -7 -3 2 9 13 6 2 17 16 6 11 5 5 10 4 9 11 1 2 5 3 7 11 10 9 8 5 7 9
2 2 3 3 3 3 4 4 5 5 6 6 6 7 8 7 7 9 9 3 3 4 3 3 4 4 1 2 3 2 6 8 9 9 7 8 7 6 8 6 7 7 5 8 9 9 5 5 7 3 7 5 -3 6 10 13 20 10 1 2 9 12 5 8 9 -1 3 9 10 8 2 4 5 2 11 8 -4 0 8 5 6 10 8 7 9 8 10 12
3 3 3 3 2 3 3 3 3 4 4 4 5 6 6 7 7 7 9 7 6 5 3 3 5 5 1 2 3 2 4 6 9 12 9 7 7 6 7 6 7 8 7 5 9 12 6 7 7 2 8 10 1 9 21 15 6 10 8 3 15 12 1 16 19 7 7 8 9 7 5 7 7 6 7 1 -2 0 5 9 7 7 6 5 9 10 7 11
4 4 4 4 4 3 3 2 3 3 3 4 4 5 5 6 6 5 7 9 7 3 3 5 5 3 3 3 3 2 4 6 8 11 11 7 6 7 8 7 5 7 8 4 9 9 2 6 7 3 11 13 7 5 11 11 5 10 6 -4 1 -11 -6 19 9 1 12 9 7 8 7 9 6 7 10 8 7 5 4 6 7 8 8 6 8 8 4 8
4 4 4 5 5 4 5 4 4 3 3 4 4 4 5 4 5 6 5 7 7 3 4 6 4 4 5 4 2 3 5 6 5 7 12 9 6 8 8 7 6 6 7 6 10 6 2 13 4 -7 5 9 8 8 8 9 5 12 16 11 12 -1 0 14 1 -4 7 11 18 14 3 8 12 9 15 15 6 10 11 1 4 11 7 7 8 5 4 6
3 3 3 4 4 4 5 5 5 5 3 4 4 4 4 4 4 4 3 6 6 5 6 6 4 5 4 1 2 4 3 5 5 5 11 9 6 9 7 6 7 6 7 6 8 4 1 15 11 -1 6 7 8 9 6 10 9 11 13 4 6 9 11 12 -2 -8 -1 3 12 20 11 4 8 6 11 13 -3 0 13 7 7 11 6 11 12 4 6 11
4 4 4 4 4 3 4 5 5 4 4 5 5 4 4 4 4 3 3 5 4 5 7 5 3 4 5 4 5 6 3 4 6 2 5 9 8 10 8 7 7 6 8 4 5 9 -2 -2 8 12 12 8 10 10 6 15 9 -0 10 12 8 13 15 13 4 1 8 1 -7 9 15 2 7 11 5 6 -1 -6 5 7 5 5 4 9 10 6 7 10
6 6 5 5 5 4 4 4 3 3 4 5 5 5 5 5 4 3 3 3 2 4 7 8 8 5 4 5 3 3 2 2 4 -1 2 12 12 11 10 8 8 7 7 3 4 11 5 -2 4 9 9 6 8 8 6 14 5 -10 5 16 12 17 15 10 11 7 8 10 1 2 6 0 7 14 2 1 12 11 7 9 9 8 8 7 8 10 9 8
4 4 5 5 6 6 5 5 5 4 4 5 5 6 6 5 5 4 3 2 3 6 6 6 8 5 3 4 3 3 3 3 5 2 5 15 12 8 11 8 7 7 4 6 8 5 2 8 11 7 8 8 7 11 8 10 10 -4 -2 6 6 14 14 7 11 10 5 11 12 7 7 3 -1 7 12 8 10 10 7 11 11 9 9 5 5 8 7 8
4 4 4 5 5 6 5 5 6 5 6 6 5 5 6 5 4 5 4 0 2 6 3 -0 3 6 4 6 7 6 5 4 3 1 6 12 5 3 10 8 7 9 6 6 9 5 2 7 13 11 14 10 4 11 8 7 14 -1 -5 10 7 2 6 6 8 9 5 4 11 14 10 8 7 4 7 8 4 2 7 10 5 5 8 3 2 4 4 5
5 4 5 6 5 5 5 5 6 7 7 6 6 6 5 5 4 6 4 0 4 7 4 2 5 6 4 4 5 3 4 5 3 2 5 7 3 3 9 7 7 11 9 6 6 9 5 -2 2 7 10 8 5 10 3 5 20 2 -12 5 7 3 6 5 4 6 5 5 11 16 7 2 11 10 5 10 6 -5 -2 4 4 7 8 6 11 10 5 3
5 4 4 5 5 6 6 6 5 7 7 5 6 6 4 6 4 3 3 3 6 4 1 4 4 5 7 5 4 2 4 7 5 4 4 3 4 6 5 3 7 10 9 10 8 10 7 -1 0 4 5 4 5 8 -4 -3 17 6 -11 -4 0 5 8 7 10 5 3 9 6 10 16 10 8 11 8 5 3 2 5 8 7 9 8 7 12 9 7 10
5 4 4 5 5 6 7 6 4 6 8 7 6 6 5 6 2 2 6 5 5 5 6 8 7 11 12 7 7 6 5 7 7 4 2 2 3 3 2 2 6 6 8 13 11 8 8 5 5 5 6 7 3 6 2 -2 9 7 1 4 3 7 8 11 20 13 6 13 8 5 11 8 7 10 3 -4 8 24 24 12 4 7 9 7 8 8 7 11
6 5 5 5 4 6 8 7 4 4 7 7 6 6 5 3 2 6 8 6 6 7 8 7 4 8 8 6 9 7 3 3 1 -0 0 -0 1 2 3 5 7 7 9 13 12 9 7 6 6 5 10 15 6 5 9 5 8 9 8 7 5 9 8 1 4 6 5 4 4 9 8 3 9 12 6 -3 0 9 8 3 3 6 8 7 8 10 7 8
8 7 7 8 7 8 9 9 7 7 8 8 7 6 5 4 5 8 7 7 9 6 5 4 4 9 6 3 8 10 12 12 4 0 3 3 4 5 4 4 7 9 10 12 11 9 6 6 13 22 28 27 13 6 8 9 10 9 9 11 8 8 7 3 2 4 9 6 0 5 8 6 4 4 4 -6 -11 -1 3 4 9 9 8 8 7 7 6 7
9 9 9 11 10 9 9 10 10 9 9 10 10 8 6 6 6 7 6 6 7 7 7 6 6 7 0 -1 13 20 19 21 18 9 6 4 1 3 8 9 8 6 6 8 7 8 9 6 11 18 17 14 12 12 10 5 3 4 8 13 18 19 6 -4 -2 0 6 10 6 -2 -3 3 5 1 0 -4 -1 13 14 7 7 6 7 8 7 7 7 7
10 10 9 11 11 9 9 10 10 10 9 10 10 8 8 10 9 8 9 7 5 7 8 6 6 4 6 15 21 14 7 14 22 17 13 14 14 21 28 21 15 18 16 9 6 11 9 5 15 16 4 3 9 16 23 17 11 13 11 5 15 30 21 2 -2 3 8 11 8 2 -5 -2 4 1 -0 4 6 8 9 8 9 11 10 8 7 7 6 5
9 9 9 10 9 8 8 9 8 8 7 6 7 6 6 8 7 5 6 5 3 6 4 4 4 1 8 10 -2 -2 11 16 12 4 3 9 11 20 27 20 20 29 26 13 10 19 12 3 10 10 3 9 14 18 28 20 6 5 2 -1 10 14 7 7 9 4 7 10 9 11 7 1 3 4 2 3 0 -3 1 7 10 10 4 2 9 10 6 5
9 9 11 8 6 7 7 6 6 5 5 5 6 6 3 1 0 -2 0 -0 -0 4 2 2 3 1 4 -1 -11 3 18 11 2 -2 1 11 9 5 5 8 15 19 18 14 11 15 19 12 5 2 2 8 11 10 8 3 9 18 3 -6 10 12 -4 2 14 10 6 7 8 13 15 10 10 9 5 3 4 5 5 4 7 7 -0 1 9 6 2 4
9 10 10 8 7 8 5 4 5 4 4 4 4 5 1 -1 -0 -1 2 3 3 3 2 3 4 3 4 2 2 6 -4 -11 -0 4 6 15 12 3 -2 -3 7 16 18 19 14 9 15 15 7 4 2 0 1 -3 -12 -4 22 34 15 -9 -10 3 6 -0 -1 7 12 10 8 8 8 13 16 12 9 7 11 12 6 3 6 6 4 4 2 4 11 11
8 7 7 7 6 4 5 7 5 4 6 6 4 3 1 1 2 2 4 7 7 4 4 6 5 3 3 2 2 2 -6 -5 4 4 5 6 -0 3 8 0 1 9 9 10 14 8 2 6 13 13 4 -5 -3 -1 -5 2 13 16 22 22 2 -9 9 15 2 -1 4 2 2 1 -0 7 11 7 5 4 4 5 4 6 8 4 4 6 3 8 14 9
6 5 6 7 5 2 5 7 8 10 10 7 7 9 9 9 8 8 10 11 10 8 7 8 6 3 4 5 5 4 1 -1 -4 -4 0 -0 0 7 10 6 -2 -5 4 14 20 19 8 -0 7 19 20 1 -12 4 23 23 12 3 8 25 22 -0 -7 2 4 4 5 4 6 7 6 11 12 8 9 8 2 2 5 7 6 5 7 9 7 5 2 2
5 5 4 5 4 3 4 4 8 14 11 11 17 19 16 14 13 13 14 13 12 11 9 9 9 7 1 2 7 6 3 1 -3 -1 -2 -7 -1 3 3 13 10 -1 7 11 3 13 20 9 0 7 23 19 -7 -8 16 19 6 -1 -1 7 19 17 2 -6 -3 0 4 12 17 16 9 6 6 5 5 7 6 6 10 7 3 5 9 10 9 7 6 9
3 4 6 7 6 6 6 4 9 15 13 15 21 19 17 17 15 13 15 15 15 13 11 9 12 17 13 5 4 2 4 7 2 3 6 3 5 7 6 11 4 -11 -7 -2 -9 -6 3 8 7 -5 2 25 21 -9 -19 -7 1 5 9 2 -2 9 18 16 14 6 -1 2 5 8 8 6 8 12 8 6 7 7 7 5 3 6 9 10 11 10 6 6
3 5 8 9 8 10 13 14 20 22 16 15 17 18 20 16 12 15 17 17 17 15 12 6 4 11 13 8 6 6 7 11 6 2 5 5 3 5 8 10 7 -5 -11 -7 -0 2 2 7 9 -2 -11 2 18 10 -11 -16 -9 1 7 -2 -5 11 15 10 18 17 6 3 -1 -2 5 5 7 10 4 -1 1 3 2 2 3 5 5 6 8 7 6 5
9 8 10 14 16 16 15 18 21 16 12 17 19 20 21 16 16 23 21 15 16 17 13 10 6 2 0 2 6 9 8 9 9 4 2 2 2 2 7 12 17 17 13 8 1 1 7 4 -3 -2 -8 -20 -11 8 13 4 -4 -1 2 -6 -4 13 11 1 6 4 -2 4 2 -5 -3 -1 -3 -2 -1 0 3 4 5 5 4 5 4 4 6 6 7 6
11 9 16 25 23 14 11 16 18 16 18 24 21 17 17 15 18 20 15 12 18 19 12 11 13 7 3 7 6 5 7 8 10 8 0 -2 -1 -0 5 7 -0 -2 14 25 14 8 10 -2 -11 -3 -5 -9 -1 3 6 16 14 5 6 3 -3 -0 4 5 4 -0 -1 5 4 2 9 12 9 6 7 9 7 5 9 10 7 5 3 2 3 5 6 4
19 21 27 27 18 15 20 23 23 23 24 21 16 16 15 13 14 13 10 10 15 17 11 8 13 13 10 11 8 5 7 7 10 15 9 4 4 2 5 11 7 -2 6 15 7 8 14 4 1 2 -11 -9 9 8 0 6 4 -2 2 6 2 1 7 6 0 1 4 4 3 6 9 9 7 8 10 8 6 9 12 9 4 5 5 6 6 5 6 8
27 29 31 24 17 22 28 26 20 18 19 19 20 21 18 17 20 22 21 21 23 24 19 12 15 16 12 11 11 12 11 8 11 15 9 4 7 8 3 3 7 9 11 9 -1 -4 3 5 4 2 -5 -4 3 9 14 13 5 5 6 0 -4 4 13 11 7 9 6 1 5 6 4 6 10 11 10 6 3 5 4 -0 -0 5 7 5 6 7 6 8
23 23 23 20 18 20 23 24 21 19 21 23 22 18 17 20 24 27 28 28 27 26 23 23 26 24 20 15 13 15 15 12 11 11 9 7 6 9 11 7 8 14 13 6 9 11 6 6 8 2 1 12 10 2 5 10 13 13 8 2 -2 -4 0 5 11 18 14 5 3 4 5 9 8 5 6 6 4 3 1 -0 2 5 4 3 6 7 5 7
20 19 17 15 15 14 14 16 17 16 14 11 8 9 14 16 15 16 15 13 13 13 14 18 23 24 27 27 22 21 18 11 8 7 10 15 13 8 10 9 5 9 9 -2 4 14 5 3 18 16 4 12 21 8 -12 -10 10 14 4 7 9 -1 -5 -5 -2 6 12 12 8 4 5 3 -2 -3 -2 1 4 5 6 6 4 2 3 8 12 6 1 8
15 15 14 12 10 8 7 8 9 9 7 4 5 9 13 15 14 14 12 9 10 11 10 13 17 15 15 18 17 17 19 18 19 18 11 9 13 10 8 11 7 6 12 8 4 8 4 0 11 15 5 2 13 19 7 4 19 21 10 11 13 6 3 2 0 -2 -1 7 12 4 0 3 4 4 2 1 1 1 2 5 7 9 7 6 9 9 9 12
11 9 8 9 7 6 7 8 7 6 7 8 10 12 12 13 14 15 16 14 12 12 11 14 19 17 13 16 17 13 14 19 21 23 17 10 13 13 8 8 9 7 9 11 13 18 19 13 5 1 2 0 -3 4 14 16 14 11 14 22 19 10 6 4 8 9 1 1 7 4 -0 2 4 6 8 7 5 5 6 6 6 9 9 5 5 8 11 12
Height
5864 5863 5862 5861 5860 5859 5857 5856 5855 5854 5852 5851 5850 5848 5847 5846 5844 5843 5842 5840 5839 5837 5836 5834 5833 5831 5829 5828 5827 5825 5824 5823 5821 5820 5818 5817 5815 5814 5814 5812 5811 5810 5810 5809 5809 5809 5807 5807 5806 5806 5806 5805 5804 5804 5806 5807 5807 5808 5809 5809 5808 5809 5810 5809 5810 5812 5813 5814 5814 5813 5813 5814 5813 5812 5812 5813 5815 5815 5817 5817 5816 5815 5815 5816 5816 5815 5815 5815
5864 5863 5862 5861 5860 5859 5858 5856 5855 5854 5853 5851 5850 5849 5847 5846 5845 5843 5842 5841 5839 5838 5836 5835 5833 5832 5830 5828 5827 5826 5825 5823 5822 5820 5819 5818 5816 5815 5814 5813 5812 5811 5811 5810 5810 5809 5808 5807 5807 5807 5806 5805 5806 5808 5809 5809 5809 5809 5810 5810 5809 5810 5810 5810 5811 5813 5814 5813 5813 5811 5810 5813 5813 5813 5813 5812 5814 5815 5816 5815 5814 5813 5813 5814 5816 5816 5816 5815
5864 5863 5862 5861 5860 5859 5858 5856 5855 5854 5853 5851 5850 5849 5847 5846 5845 5844 5842 5841 5840 5838 5837 5835 5834 5832 5831 5829 5828 5826 5825 5824 5823 5821 5820 5818 5816 5816 5815 5814 5813 5812 5812 5811 5810 5810 5808 5808 5808 5808 5806 5806 5809 5812 5812 5811 5810 5810 5811 5810 5810 5811 5812 5812 5812 5812 5813 5812 5812 5811 5810 5813 5814 5813 5811 5811 5813 5814 5814 5814 5812 5811 5813 5814 5816 5817 5816 5814
5864 5863 5862 5861 5860 5859 5858 5856 5855 5854 5853 5851 5850 5849 5847 5846 5845 5844 5843 5841 5840 5839 5837 5836 5834 5833 5831 5830 5828 5827 5825 5824 5823 5822 5821 5818 5817 5817 5816 5815 5814 5813 5813 5812 5812 5811 5809 5809 5809 5809 5807 5809 5813 5814 5813 5812 5811 5810 5812 5813 5812 5812 5813 5813 5812 5812 5812 5811 5812 5813 5812 5813 5813 5812 5811 5811 5813 5813 5813 5813 5810 5810 5812 5813 5815 5816 5816 5814
5863 5863 5862 5861 5860 5858 5857 5856 5855 5854 5853 5851 5850 5849 5847 5846 5845 5844 5843 5842 5840 5839 5838 5836 5835 5833 5832 5830 5828 5827 5826 5825 5824 5822 5821 5819 5818 5817 5817 5816 5815 5815 5813 5813 5813 5811 5810 5810 5810 5810 5809 5811 5815 5814 5814 5815 5813 5811 5812 5814 5813 5814 5815 5814 5813 5813 5813 5812 5812 5813 5813 5813 5812 5812 5812 5811 5811 5811 5811 5812 5810 5809 5811 5813 5814 5815 5815 5814
5863 5862 5861 5860 5859 5858 5857 5856 5855 5854 5853 5851 5850 5849 5848 5846 5845 5844 5843 5842 5841 5839 5838 5837 5835 5834 5832 5831 5829 5828 5826 5825 5824 5823 5822 5820 5819 5818 5818 5817 5816 5816 5814 5814 5815 5812 5811 5812 5811 5811 5811 5813 5815 5815 5815 5816 5816 5814 5815 5815 5814 5816 5818 5817 5816 5815 5815 5814 5813 5813 5814 5813 5812 5813 5813 5812 5811 5810 5810 5811 5810 5809 5810 5813 5813 5814 5815 5814
5862 5861 5860 5860 5859 5858 5857 5856 5855 5854 5853 5852 5850 5849 5848 5846 5845 5844 5843 5842 5841 5840 5839 5837 5836 5835 5833 5831 5830 5828 5827 5826 5824 5823 5822 5821 5820 5819 5818 5818 5817 5817 5815 5815 5815 5812 5812 5813 5812 5813 5813 5815 5816 5815 5816 5816 5817 5817 5817 5817 5816 5818 5818 5817 5816 5816 5817 5816 5814 5814 5814 5813 5812 5813 5813 5811 5811 5810 5810 5810 5809 5808 5809 5812 5813 5814 5815 5813
5861 5860 5860 5859 5858 5857 5856 5855 5854 5853 5853 5851 5850 5849 5848 5847 5845 5844 5843 5842 5841 5840 5839 5838 5836 5835 5834 5832 5830 5829 5827 5826 5825 5823 5823 5822 5821 5820 5819 5819 5818 5818 5816 5816 5816 5813 5813 5813 5813 5814 5815 5817 5816 5816 5817 5817 5817 5816 5817 5818 5817 5819 5818 5818 5817 5816 5817 5816 5815 5814 5814 5813 5811 5813 5813 5811 5812 5811 5810 5810 5808 5807 5808 5811 5813 5814 5814 5813
5860 5859 5859 5858 5857 5856 5855 5854 5854 5853 5852 5851 5850 5849 5848 5847 5846 5844 5843 5842 5841 5840 5839 5838 5837 5836 5834 5833 5831 5829 5828 5827 5825 5824 5823 5822 5822 5821 5820 5819 5819 5818 5817 5817 5816 5814 5814 5814 5814 5815 5816 5818 5818 5817 5817 5818 5818 5817 5817 5817 5817 5819 5820 5818 5817 5816 5817 5816 5815 5814 5814 5813 5811 5811 5813 5812 5812 5811 5810 5809 5808 5808 5808 5810 5813 5814 5813 5812
5859 5858 5858 5857 5856 5855 5854 5853 5852 5852 5851 5850 5849 5848 5847 5846 5845 5844 5843 5842 5841 5839 5838 5838 5837 5836 5834 5833 5832 5830 5828 5827 5825 5824 5823 5823 5822 5821 5821 5820 5819 5819 5819 5818 5817 5816 5816 5815 5815 5815 5816 5817 5818 5818 5818 5818 5818 5817 5817 5817 5817 5818 5819 5818 5818 5817 5817 5816 5816 5816 5815 5812 5810 5811 5813 5813 5812 5811 5810 5809 5808 5809 5809 5810 5812 5812 5812 5812
5857 5857 5856 5856 5855 5854 5853 5852 5851 5851 5850 5849 5848 5847 5847 5846 5845 5844 5843 5842 5841 5839 5838 5837 5836 5835 5834 5833 5832 5831 5829 5827 5826 5824 5823 5823 5822 5822 5821 5821 5820 5819 5819 5819 5817 5817 5817 5816 5816 5816 5816 5817 5818 5819 5818 5818 5818 5817 5817 5817 5817 5817 5818 5818 5818 5817 5817 5816 5816 5816 5815 5812 5811 5813 5814 5813 5812 5811 5810 5809 5809 5810 5810 5811 5810 5810 5811 5811
5856 5856 5855 5855 5854 5853 5852 5851 5850 5849 5849 5848 5847 5847 5846 5845 5844 5844 5843 5842 5840 5839 5838 5837 5836 5835 5834 5833 5832 5831 5830 5828 5826 5825 5824 5823 5822 5822 5821 5821 5821 5820 5820 5819 5818 5817 5818 5817 5817 5817 5817 5817 5818 5818 5818 5818 5818 5818 5817 5817 5818 5818 5818 5818 5817 5817 5817 5816 5816 5816 5814 5812 5811 5812 5813 5814 5813 5811 5810 5809 5808 5809 5810 5811 5810 5809 5810 5811
5855 5854 5854 5853 5853 5852 5851 5850 5849 5848 5847 5847 5846 5846 5845 5844 5844 5843 5842 5841 5840 5839 5838 5837 5836 5835 5834 5833 5832 5831 5830 5829 5827 5826 5824 5823 5822 5822 5822 5821 5821 5820 5820 5820 5819 5818 5818 5818 5818 5818 5817 5817 5818 5818 5818 5819 5819 5818 5818 5817 5818 5818 5820 5820 5818 5818 5817 5816 5815 5815 5814 5813 5811 5811 5811 5813 5813 5811 5810 5809 5808 5807 5808 5811 5811 5812 5811 5810
5853 5853 5852 5852 5851 5851 5850 5849 5848 5847 5846 5845 5845 5844 5843 5843 5842 5842 5841 5841 5840 5839 5838 5837 5836 5835 5834 5833 5832 5831 5830 5829 5828 5827 5825 5824 5823 5822 5822 5821 5821 5820 5820 5820 5819 5819 5819 5819 5819 5818 5818 5818 5818 5819 5819 5819 5819 5819 5819 5818 5818 5820 5822 5823 5820 5818 5817 5816 5815 5814 5815 5814 5813 5812 5810 5810 5811 5810 5810 5810 5808 5806 5806 5808 5810 5811 5811 5810
5851 5851 5850 5850 5849 5849 5848 5847 5847 5846 5845 5844 5844 5843 5842 5841 5841 5841 5840 5840 5839 5838 5837 5836 5835 5835 5834 5833 5832 5831 5830 5829 5829 5827 5826 5824 5823 5823 5822 5821 5821 5820 5820 5820 5819 5819 5819 5819 5819 5819 5818 5818 5818 5819 5819 5820 5820 5820 5820 5821 5821 5822 5823 5822 5819 5818 5817 5816 5815 5815 5815 5814 5815 5815 5812 5810 5811 5810 5810 5810 5808 5806 5805 5805 5806 5808 5809 5810
5850 5849 5849 5848 5847 5847 5847 5846 5845 5844 5844 5843 5843 5842 5841 5840 5839 5839 5839 5839 5838 5838 5837 5836 5835 5834 5833 5833 5831 5831 5830 5829 5829 5828 5827 5825 5824 5823 5822 5821 5821 5820 5820 5820 5819 5819 5819 5819 5819 5819 5819 5818 5818 5819 5820 5821 5822 5822 5822 5823 5822 5822 5824 5823 5819 5818 5817 5816 5815 5815 5815 5815 5815 5815 5813 5811 5811 5809 5808 5809 5808 5807 5806 5805 5803 5804 5807 5809
5848 5848 5847 5846 5846 5845 5845 5845 5844 5843 5843 5842 5841 5841 5840 5839 5838 5838 5837 5837 5837 5837 5836 5835 5834 5834 5833 5832 5831 5830 5830 5829 5828 5828 5827 5826 5825 5824 5823 5821 5821 5820 5820 5819 5819 5819 5819 5819 5819 5819 5819 5818 5818 5819 5820 5822 5824 5824 5824 5824 5823 5822 5823 5823 5820 5818 5817 5816 5815 5814 5814 5814 5814 5814 5813 5811 5810 5808 5808 5808 5808 5807 5806 5805 5804 5803 5805 5807
5847 5846 5845 5845 5844 5844 5843 5843 5843 5842 5841 5841 5840 5840 5839 5837 5837 5837 5836 5836 5835 5835 5835 5834 5833 5833 5832 5831 5830 5830 5829 5828 5828 5827 5827 5826 5825 5824 5823 5822 5821 5820 5820 5819 5819 5819 5819 5819 5819 5819 5818 5818 5818 5819 5821 5823 5824 5823 5823 5823 5823 5822 5822 5824 5822 5818 5816 5816 5815 5815 5814 5813 5812 5812 5812 5811 5809 5808 5808 5807 5808 5808 5807 5805 5805 5804 5803 5805
5845 5844 5844 5843 5843 5842 5842 5841 5841 5841 5840 5840 5839 5838 5837 5836 5836 5836 5834 5834 5834 5834 5834 5833 5832 5831 5831 5831 5830 5829 5828 5828 5827 5826 5826 5825 5825 5824 5823 5822 5821 5820 5819 5819 5819 5818 5819 5819 5819 5818 5818 5818 5818 5819 5821 5824 5825 5824 5823 5822 5823 5825 5824 5824 5822 5817 5816 5816 5815 5815 5816 5815 5813 5812 5812 5811 5810 5809 5808 5807 5806 5808 5807 5806 5805 5805 5804 5804
5842 5842 5842 5841 5841 5840 5840 5839 5839 5839 5838 5838 5838 5837 5836 5835 5834 5835 5834 5832 5833 5832 5832 5832 5832 5830 5830 5829 5829 5828 5827 5827 5826 5825 5825 5824 5824 5824 5823 5823 5822 5821 5819 5819 5818 5818 5818 5818 5818 5818 5818 5817 5818 5821 5822 5823 5823 5822 5821 5821 5823 5827 5825 5824 5822 5817 5815 5816 5815 5815 5816 5815 5813 5812 5812 5811 5809 5808 5808 5808 5806 5807 5807 5807 5806 5805 5805 5804
5840 5839 5839 5839 5838 5838 5837 5837 5836 5836 5836 5836 5836 5835 5835 5834 5833 5833 5833 5832 5831 5831 5831 5830 5830 5830 5829 5828 5827 5827 5826 5826 5825 5824 5824 5823 5823 5823 5823 5822 5821 5821 5819 5818 5817 5817 5817 5818 5818 5818 5818 5817 5819 5822 5822 5820 5820 5820 5820 5819 5822 5826 5825 5824 5822 5817 5815 5815 5815 5815 5815 5816 5814 5812 5810 5808 5807 5807 5808 5808 5807 5806 5806 5807 5808 5807 5806 5805
5836 5836 5836 5836 5836 5835 5834 5834 5833 5833 5833 5833 5833 5833 5833 5832 5831 5831 5832 5831 5829 5829 5830 5829 5828 5828 5828 5826 5826 5825 5825 5825 5824 5823 5823 5822 5822 5822 5822 5821 5821 5820 5819 5818 5817 5816 5817 5818 5818 5818 5818 5817 5818 5820 5819 5818 5819 5818 5819 5819 5821 5823 5823 5823 5821 5817 5816 5815 5815 5815 5815 5816 5815 5814 5813 5810 5808 5808 5808 5807 5807 5806 5805 5805 5806 5805 5805 5805
5834 5833 5833 5833 5833 5833 5832 5831 5831 5830 5830 5830 5830 5830 5830 5829 5829 5828 5829 5830 5829 5827 5827 5828 5827 5826 5826 5825 5825 5824 5824 5823 5823 5823 5822 5821 5821 5820 5820 5820 5820 5820 5819 5818 5817 5816 5816 5817 5817 5817 5817 5817 5817 5818 5817 5817 5818 5817 5818 5818 5820 5823 5823 5823 5821 5817 5815 5815 5815 5815 5815 5815 5814 5814 5814 5812 5811 5810 5809 5807 5807 5806 5805 5804 5803 5802 5802 5803
5831 5830 5830 5830 5830 5829 5829 5829 5828 5828 5827 5827 5828 5827 5827 5827 5826 5826 5825 5827 5828 5826 5825 5825 5825 5825 5825 5824 5824 5823 5823 5822 5821 5821 5821 5820 5819 5819 5819 5819 5819 5818 5818 5817 5816 5816 5816 5816 5818 5818 5816 5816 5816 5817 5817 5817 5817 5816 5817 5817 5818 5822 5822 5821 5820 5816 5815 5815 5814 5814 5814 5814 5813 5813 5813 5812 5811 5810 5809 5808 5807 5806 5805 5805 5803 5802 5801 5801
5828 5828 5827 5827 5826 5826 5826 5826 5826 5825 5823 5824 5825 5824 5823 5823 5823 5823 5822 5823 5824 5824 5825 5824 5822 5823 5823 5822 5822 5821 5821 5821 5820 5819 5820 5819 5817 5817 5817 5817 5817 5817 5816 5816 5816 5816 5815 5815 5817 5816 5815 5815 5815 5816 5816 5816 5816 5816 5816 5816 5817 5818 5818 5817 5816 5815 5815 5815 5815 5814 5814 5813 5813 5813 5813 5813 5811 5809 5809 5809 5807 5806 5805 5805 5805 5803 5802 5801
5824 5824 5824 5824 5823 5823 5823 5823 5823 5821 5820 5821 5823 5821 5820 5821 5820 5819 5819 5819 5819 5820 5823 5823 5821 5821 5820 5820 5820 5819 5819 5820 5818 5817 5818 5818 5816 5816 5816 5815 5815 5815 5815 5815 5815 5814 5815 5814 5814 5814 5814 5814 5814 5814 5814 5814 5815 5815 5816 5817 5816 5815 5815 5815 5815 5814 5814 5814 5814 5813 5813 5813 5812 5812 5812 5811 5810 5809 5809 5809 5807 5805 5804 5805 5805 5803 5802 5801
5820 5820 5820 5820 5820 5819 5818 5819 5819 5818 5817 5819 5819 5818 5818 5818 5817 5816 5815 5814 5814 5816 5818 5821 5820 5818 5817 5817 5818 5817 5816 5817 5817 5815 5815 5816 5815 5814 5814 5814 5813 5814 5813 5813 5813 5813 5813 5813 5812 5813 5813 5812 5813 5813 5813 5813 5814 5814 5815 5815 5814 5813 5813 5813 5813 5813 5812 5812 5812 5811 5812 5811 5811 5812 5811 5809 5809 5808 5806 5807 5806 5805 5803 5802 5803 5804 5803 5802
5815 5815 5816 5816 5816 5816 5815 5815 5815 5815 5815 5815 5815 5815 5815 5815 5814 5814 5812 5810 5810 5813 5814 5816 5817 5817 5815 5815 5816 5815 5814 5814 5814 5813 5814 5814 5813 5813 5813 5812 5811 5812 5811 5811 5812 5812 5811 5811 5811 5811 5811 5811 5811 5811 5812 5812 5812 5813 5812 5812 5811 5811 5811 5811 5811 5811 5810 5810 5810 5811 5812 5811 5810 5811 5810 5808 5807 5806 5805 5805 5804 5803 5802 5801 5801 5801 5801 5802
5810 5810 5810 5811 5811 5812 5811 5811 5810 5811 5812 5812 5811 5812 5812 5812 5811 5810 5809 5806 5807 5811 5811 5811 5814 5815 5813 5813 5813 5813 5812 5812 5811 5809 5811 5813 5811 5810 5811 5810 5810 5809 5809 5809 5809 5810 5810 5809 5809 5809 5809 5809 5810 5810 5810 5810 5812 5812 5810 5809 5810 5810 5810 5810 5809 5809 5809 5808 5808 5810 5810 5811 5811 5811 5810 5809 5807 5805 5805 5804 5803 5803 5802 5801 5800 5799 5798 5798
5806 5806 5805 5805 5806 5806 5806 5806 5807 5807 5807 5807 5807 5808 5808 5808 5807 5806 5804 5802 5805 5808 5806 5807 5811 5811 5810 5810 5810 5810 5809 5810 5809 5806 5808 5810 5809 5809 5808 5808 5808 5808 5807 5807 5807 5808 5808 5807 5807 5808 5808 5808 5808 5808 5808 5808 5809 5808 5807 5808 5809 5808 5808 5808 5808 5807 5806 5806 5807 5808 5809 5809 5809 5809 5809 5809 5807 5804 5803 5804 5803 5803 5802 5801 5800 5800 5797 5796
5801 5801 5801 5801 5801 5801 5801 5801 5803 5802 5802 5802 5803 5803 5803 5803 5803 5800 5799 5801 5804 5804 5802 5804 5807 5807 5807 5807 5805 5805 5806 5807 5806 5803 5805 5807 5806 5806 5806 5806 5805 5805 5805 5804 5804 5806 5806 5804 5805 5806 5806 5806 5806 5806 5806 5806 5806 5806 5805 5806 5806 5806 5806 5806 5806 5805 5804 5805 5805 5806 5807 5807 5807 5807 5807 5806 5804 5803 5803 5802 5802 5802 5801 5800 5800 5800 5798 5797
5796 5796 5796 5796 5796 5796 5795 5796 5797 5797 5797 5798 5798 5798 5798 5798 5796 5794 5797 5800 5800 5799 5799 5801 5802 5802 5802 5803 5802 5801 5802 5803 5803 5801 5801 5802 5802 5802 5803 5804 5803 5802 5802 5803 5802 5802 5802 5802 5803 5803 5803 5804 5803 5803 5803 5803 5804 5804 5804 5804 5804 5804 5804 5803 5804 5803 5803 5803 5803 5805 5806 5805 5805 5805 5805 5804 5801 5801 5802 5801 5801 5801 5800 5799 5799 5799 5798 5797
5790 5790 5790 5790 5791 5790 5790 5791 5792 5791 5792 5793 5792 5793 5793 5791 5789 5791 5794 5797 5796 5797 5798 5797 5798 5799 5797 5797 5799 5799 5798 5798 5799 5799 5798 5797 5798 5797 5799 5801 5800 5799 5800 5800 5799 5798 5798 5799 5800 5800 5800 5801 5800 5800 5801 5801 5801 5802 5802 5802 5802 5802 5802 5802 5802 5802 5802 5802 5802 5803 5803 5803 5803 5803 5803 5801 5799 5799 5801 5800 5799 5799 5799 5798 5798 5797 5796 5796
5784 5784 5784 5784 5785 5784 5784 5785 5785 5785 5786 5786 5786 5787 5786 5784 5786 5789 5790 5791 5792 5793 5794 5793 5794 5796 5795 5793 5794 5795 5794 5793 5793 5795 5795 5794 5793 5793 5794 5796 5797 5797 5797 5796 5795 5795 5795 5795 5797 5797 5796 5796 5798 5798 5798 5799 5798 5798 5799 5799 5799 5800 5800 5800 5801 5801 5801 5800 5800 5800 5799 5800 5801 5800 5799 5798 5796 5796 5798 5798 5798 5797 5797 5797 5796 5796 5795 5794
5777 5778 5778 5778 5778 5778 5778 5778 5779 5779 5779 5780 5780 5780 5779 5779 5783 5785 5786 5786 5786 5787 5789 5790 5789 5790 5791 5791 5790 5791 5791 5790 5789 5789 5789 5789 5788 5789 5790 5791 5792 5793 5793 5792 5792 5792 5792 5792 5795 5796 5793 5792 5793 5795 5795 5795 5795 5796 5796 5796 5796 5797 5798 5797 5798 5798 5798 5797 5797 5797 5797 5797 5797 5797 5796 5795 5793 5794 5795 5795 5795 5795 5795 5795 5794 5794 5794 5793
5770 5771 5772 5772 5772 5772 5772 5771 5772 5772 5772 5773 5773 5773 5774 5776 5779 5780 5780 5781 5781 5782 5783 5784 5785 5784 5785 5786 5787 5788 5788 5787 5787 5786 5785 5785 5784 5784 5785 5785 5787 5788 5788 5788 5789 5789 5788 5789 5792 5794 5792 5790 5788 5790 5791 5791 5792 5794 5794 5794 5794 5795 5795 5795 5795 5795 5794 5792 5793 5794 5794 5794 5795 5794 5794 5792 5790 5791 5792 5792 5792 5792 5792 5792 5792 5792 5792 5791
5763 5764 5765 5765 5765 5765 5765 5764 5765 5765 5766 5766 5765 5768 5770 5772 5774 5776 5776 5776 5776 5777 5776 5776 5780 5781 5780 5780 5781 5784 5786 5784 5783 5783 5782 5783 5781 5781 5782 5782 5782 5783 5784 5784 5785 5786 5785 5785 5787 5789 5790 5789 5787 5786 5786 5786 5789 5791 5790 5792 5794 5794 5793 5793 5793 5792 5791 5789 5789 5791 5791 5792 5793 5791 5790 5789 5788 5788 5789 5788 5789 5790 5789 5790 5790 5790 5789 5789
5755 5757 5757 5757 5758 5758 5757 5757 5757 5758 5759 5758 5760 5764 5765 5766 5769 5770 5770 5770 5770 5770 5769 5769 5772 5775 5776 5776 5775 5779 5782 5780 5779 5778 5778 5780 5778 5778 5780 5780 5780 5780 5781 5782 5781 5782 5782 5781 5782 5784 5786 5787 5786 5783 5782 5782 5785 5786 5787 5790 5791 5792 5790 5790 5789 5788 5787 5786 5786 5788 5788 5789 5790 5788 5787 5786 5785 5786 5786 5785 5785 5786 5786 5786 5787 5787 5787 5786
5747 5749 5748 5750 5752 5749 5749 5749 5749 5749 5749 5751 5755 5758 5759 5760 5762 5763 5763 5763 5763 5763 5763 5763 5764 5767 5769 5770 5770 5773 5774 5774 5775 5774 5774 5774 5773 5774 5777 5778 5778 5778 5779 5780 5778 5778 5779 5776 5776 5779 5783 5784 5782 5779 5777 5779 5782 5782 5783 5784 5785 5786 5786 5786 5786 5784 5784 5784 5784 5785 5785 5787 5787 5785 5784 5784 5783 5783 5784 5784 5784 5784 5783 5783 5783 5784 5785 5784
5739 5740 5739 5742 5745 5741 5740 5740 5740 5740 5740 5744 5749 5751 5751 5752 5753 5755 5756 5755 5755 5754 5755 5758 5758 5757 5760 5762 5764 5766 5767 5767 5769 5769 5769 5768 5767 5769 5773 5774 5775 5775 5775 5776 5775 5776 5776 5772 5771 5774 5777 5778 5776 5774 5773 5776 5779 5778 5778 5779 5780 5781 5782 5783 5782 5781 5780 5780 5781 5781 5781 5784 5784 5781 5780 5781 5780 5781 5782 5782 5782 5782 5782 5781 5780 5781 5782 5782
5730 5731 5730 5733 5734 5731 5731 5730 5731 5732 5731 5735 5741 5741 5741 5743 5744 5746 5747 5746 5746 5746 5746 5749 5751 5750 5750 5753 5755 5758 5759 5760 5761 5762 5763 5763 5762 5763 5767 5770 5770 5771 5770 5770 5770 5770 5771 5769 5767 5768 5770 5771 5771 5772 5772 5772 5773 5774 5775 5776 5776 5778 5779 5779 5778 5778 5778 5777 5777 5777 5777 5779 5780 5778 5777 5778 5777 5778 5779 5779 5779 5779 5779 5779 5778 5778 5779 5779
5720 5720 5720 5722 5722 5720 5720 5719 5722 5723 5720 5725 5731 5730 5730 5733 5734 5736 5737 5737 5737 5737 5737 5738 5741 5742 5742 5742 5745 5748 5750 5751 5753 5755 5755 5757 5757 5758 5762 5765 5765 5765 5764 5763 5763 5764 5765 5764 5763 5762 5763 5765 5768 5769 5770 5769 5768 5769 5770 5772 5772 5773 5774 5773 5773 5775 5776 5774 5774 5774 5772 5774 5777 5776 5774 5774 5774 5775 5776 5775 5775 5776 5776 5776 5776 5775 5775 5776
5710 5711 5711 5712 5711 5709 5709 5710 5712 5711 5710 5715 5720 5719 5719 5721 5722 5725 5727 5728 5728 5728 5729 5728 5730 5733 5734 5734 5733 5737 5741 5742 5744 5747 5747 5750 5753 5753 5756 5758 5759 5758 5757 5757 5757 5758 5758 5757 5757 5757 5758 5759 5762 5763 5764 5764 5763 5763 5764 5767 5768 5768 5769 5769 5770 5772 5772 5771 5771 5770 5767 5770 5773 5773 5772 5771 5771 5773 5772 5771 5772 5772 5773 5773 5773 5773 5772 5772
5701 5701 5700 5700 5700 5699 5699 5701 5702 5700 5701 5705 5707 5708 5709 5710 5712 5715 5717 5718 5719 5719 5719 5719 5721 5722 5724 5724 5723 5727 5732 5732 5735 5739 5740 5741 5745 5747 5749 5751 5753 5752 5751 5752 5752 5753 5753 5751 5751 5752 5752 5752 5754 5755 5756 5758 5758 5757 5758 5761 5763 5765 5766 5766 5766 5768 5766 5766 5767 5765 5764 5767 5769 5769 5769 5769 5768 5769 5769 5767 5768 5769 5769 5769 5770 5770 5770 5770
5690 5691 5690 5688 5688 5689 5690 5691 5691 5690 5691 5694 5695 5697 5699 5700 5703 5707 5707 5707 5709 5709 5708 5709 5712 5712 5713 5714 5714 5717 5721 5722 5725 5731 5732 5732 5735 5739 5743 5744 5745 5745 5746 5748 5747 5746 5746 5746 5745 5745 5744 5744 5745 5747 5750 5753 5753 5753 5755 5756 5758 5761 5763 5762 5762 5762 5760 5761 5762 5761 5762 5765 5766 5765 5765 5765 5765 5765 5765 5764 5764 5765 5765 5765 5766 5766 5767 5767
5680 5681 5682 5678 5675 5679 5683 5681 5680 5680 5682 5683 5683 5686 5690 5691 5694 5696 5695 5695 5698 5699 5697 5697 5701 5702 5703 5705 5704 5704 5710 5714 5715 5720 5724 5724 5726 5732 5734 5735 5736 5738 5741 5742 5740 5738 5738 5738 5739 5739 5737 5738 5741 5744 5746 5749 5749 5749 5750 5752 5753 5756 5758 5759 5757 5755 5756 5758 5757 5757 5759 5761 5762 5761 5761 5761 5762 5761 5761 5760 5760 5761 5762 5762 5762 5762 5763 5764
5671 5673 5674 5669 5664 5668 5674 5674 5672 5671 5673 5673 5672 5676 5679 5680 5683 5685 5684 5685 5688 5689 5685 5686 5691 5693 5694 5698 5696 5695 5701 5705 5706 5711 5714 5716 5720 5723 5725 5726 5728 5731 5735 5734 5730 5729 5730 5730 5731 5732 5732 5735 5738 5739 5740 5742 5743 5743 5743 5745 5747 5748 5750 5751 5750 5750 5753 5753 5751 5753 5756 5757 5757 5757 5756 5757 5757 5757 5757 5757 5757 5757 5758 5758 5758 5759 5759 5760
5662 5664 5663 5660 5658 5658 5662 5666 5665 5663 5663 5663 5663 5666 5669 5671 5674 5675 5676 5676 5678 5679 5677 5678 5683 5685 5686 5689 5688 5688 5692 5694 5697 5702 5705 5707 5712 5713 5713 5716 5720 5724 5725 5723 5721 5723 5723 5722 5724 5725 5726 5730 5732 5733 5733 5734 5736 5736 5736 5738 5740 5740 5740 5741 5743 5746 5748 5747 5746 5750 5753 5752 5752 5754 5753 5752 5752 5751 5752 5752 5752 5753 5754 5754 5754 5754 5755 5755
5654 5655 5654 5652 5651 5652 5653 5656 5657 5656 5656 5656 5656 5659 5662 5664 5665 5667 5668 5669 5669 5671 5670 5669 5675 5678 5677 5678 5680 5680 5683 5684 5687 5692 5695 5696 5699 5701 5703 5707 5711 5716 5716 5712 5713 5715 5715 5716 5718 5718 5720 5723 5725 5726 5727 5728 5729 5729 5729 5732 5734 5734 5734 5735 5737 5739 5740 5740 5742 5746 5747 5747 5748 5748 5748 5748 5747 5747 5747 5746 5747 5748 5750 5750 5751 5750 5750 5751
5645 5646 5646 5645 5645 5647 5648 5649 5650 5650 5650 5649 5650 5654 5656 5656 5658 5660 5661 5660 5660 5662 5662 5661 5665 5669 5667 5668 5669 5669 5673 5678 5678 5680 5683 5684 5686 5690 5693 5695 5699 5704 5705 5703 5704 5705 5706 5710 5713 5711 5711 5713 5717 5720 5720 5720 5720 5720 5722 5725 5726 5727 5729 5730 5731 5732 5734 5735 5737 5739 5740 5740 5742 5743 5743 5743 5742 5742 5743 5742 5742 5744 5745 5745 5745 5746 5746 5746
5638 5637 5637 5637 5638 5642 5643 5643 5644 5642 5642 5645 5646 5648 5649 5649 5651 5653 5653 5652 5652 5654 5655 5654 5656 5659 5658 5658 5659 5661 5667 5671 5669 5669 5672 5674 5677 5682 5684 5685 5688 5691 5694 5695 5695 5696 5699 5703 5706 5703 5701 5704 5710 5712 5712 5712 5711 5712 5715 5718 5719 5720 5722 5724 5726 5727 5728 5729 5731 5732 5732 5734 5737 5737 5737 5737 5737 5737 5737 5737 5738 5740 5740 5739 5739 5740 5741 5741
5631 5629 5629 5627 5630 5637 5638 5637 5637 5635 5637 5642 5642 5641 5641 5642 5645 5645 5643 5645 5646 5647 5648 5648 5648 5649 5649 5649 5654 5658 5659 5658 5658 5660 5663 5665 5669 5672 5673 5676 5680 5681 5685 5687 5687 5688 5691 5695 5697 5695 5693 5697 5703 5703 5704 5704 5702 5705 5710 5712 5713 5715 5718 5720 5721 5721 5722 5723 5725 5726 5727 5730 5732 5731 5730 5732 5732 5732 5731 5731 5733 5735 5735 5734 5733 5735 5736 5737